Weather History for Detroit, MI

Change the Weather History Date:

Tuesday, April 9, 2013

  Actual Average Record
Temperature  
Mean Temperature 44 °F -  
Max Temperature 48 °F 52 °F 74 °F (1991)
Min Temperature 41 °F 34 °F 22 °F (1950)
Degree Days  
Heating Degree Days 20    
Moisture  
Dew Point 42 °F    
Average Humidity 88    
Maximum Humidity 97    
Minimum Humidity 79    
Precipitation  
Precipitation 0.02 in - - ()
Sea Level Pressure  
Sea Level Pressure 30.02 in    
Wind  
Wind Speed 7 mph (NE)    
Max Wind Speed 13 mph    
Max Gust Speed 21 mph    
Visibility 8 miles    
Events Rain    
Averages and records for this station are not official NWS values.
T = Trace of Precipitation, MM = Missing Value Source: NWS Daily Summary

Daily Weather History Graph

Daily Weather History Graph

Search for Another Location

Airport:

Trip Planner

Search our weather history database for the weather conditions in past years. The results will help you decide how hot, cold, wet, or windy it might be!

Date:

Astronomy

Apr. 09, 2013 Rise Set
Actual Time 7:00 AM EDT 8:07 PM EDT
Civil Twilight 6:31 AM EDT 8:36 PM EDT
Nautical Twilight 5:57 AM EDT 9:10 PM EDT
Astronomical Twilight 5:21 AM EDT 9:46 PM EDT
Moon 6:23 AM EDT (4/9) 7:41 PM EDT (4/9)
Length of Visible Light 14h 04m
Length of Day
13h 06m
Waning Crescent, 1% of the Moon is Illuminated
Apr 9
Waning Crescent
Apr 10
New
Apr 18
First Quarter
Apr 25
Full
May 2
Last Quarter

Hourly Weather History & Observations

Time (EDT) Temp. Windchill Dew Point Humidity Pressure Visibility Wind Dir Wind Speed Gust Speed Precip Events Conditions
12:53 AM 48.0 °F - 42.1 °F 80% 29.99 in 10.0 mi WNW 12.7 mph 19.6 mph N/A   Clear
1:53 AM 46.9 °F - 41.0 °F 80% 30.02 in 10.0 mi NNW 10.4 mph - N/A   Partly Cloudy
2:53 AM 46.0 °F 41.0 °F 39.9 °F 79% 30.03 in 10.0 mi North 10.4 mph 17.3 mph N/A   Clear
3:39 AM 42.8 °F 37.5 °F 39.2 °F 87% 30.04 in 10.0 mi North 9.2 mph - N/A   Mostly Cloudy
3:53 AM 43.0 °F 39.5 °F 39.0 °F 86% 30.06 in 10.0 mi NNW 5.8 mph - N/A   Overcast
4:53 AM 42.1 °F - 39.0 °F 89% 30.07 in 10.0 mi Calm Calm - N/A   Overcast
5:29 AM 42.8 °F - 39.2 °F 87% 30.07 in 10.0 mi Calm Calm - N/A   Overcast
5:53 AM 42.1 °F - 39.0 °F 89% 30.09 in 10.0 mi Calm Calm - N/A   Overcast
6:02 AM 42.8 °F - 39.2 °F 87% 30.08 in 10.0 mi Calm Calm - N/A   Overcast
6:53 AM 42.1 °F - 39.0 °F 89% 30.12 in 10.0 mi Calm Calm - N/A   Overcast
7:11 AM 42.8 °F - 39.2 °F 87% 30.11 in 10.0 mi Calm Calm - N/A   Overcast
7:53 AM 42.1 °F 37.7 °F 39.0 °F 89% 30.12 in 9.0 mi ENE 6.9 mph - N/A   Overcast
8:53 AM 41.0 °F 35.8 °F 39.0 °F 93% 30.12 in 7.0 mi East 8.1 mph - N/A   Overcast
9:01 AM 41.0 °F 36.4 °F 39.2 °F 93% 30.11 in 7.0 mi ESE 6.9 mph - N/A   Overcast
9:53 AM 41.0 °F 34.7 °F 39.0 °F 93% 30.10 in 4.0 mi ESE 10.4 mph - N/A   Overcast
10:53 AM 43.0 °F 38.8 °F 39.9 °F 89% 30.11 in 4.0 mi East 6.9 mph - N/A   Overcast
11:22 AM 44.6 °F 41.4 °F 41.0 °F 87% 30.10 in 4.0 mi SE 5.8 mph - N/A   Overcast
11:53 AM 46.0 °F 44.8 °F 41.0 °F 83% 30.10 in 7.0 mi Variable 3.5 mph - N/A   Overcast
12:12 PM 46.4 °F 43.5 °F 41.0 °F 81% 30.08 in 8.0 mi East 5.8 mph - N/A   Overcast
12:53 PM 48.0 °F - 44.1 °F 86% 30.04 in 7.0 mi ESE 8.1 mph - 0.00 in Rain Light Rain
1:53 PM 46.0 °F 41.9 °F 42.1 °F 86% 30.02 in 7.0 mi East 8.1 mph - 0.00 in   Overcast
2:49 PM 48.2 °F - 42.8 °F 82% 29.98 in 8.0 mi East 8.1 mph - N/A   Overcast
2:53 PM 46.9 °F - 43.0 °F 86% 29.99 in 7.0 mi East 9.2 mph - N/A   Overcast
3:53 PM 48.0 °F - 42.1 °F 80% 29.94 in 10.0 mi East 8.1 mph - N/A   Overcast
4:53 PM 46.9 °F - 43.0 °F 86% 29.93 in 10.0 mi ENE 8.1 mph - 0.00 in   Overcast
5:51 PM 48.2 °F - 44.6 °F 87% 29.91 in 9.0 mi NNE 10.4 mph - 0.00 in   Overcast
5:53 PM 48.0 °F - 44.1 °F 86% 29.92 in 9.0 mi NNE 9.2 mph - 0.00 in   Overcast
6:53 PM 48.0 °F - 45.0 °F 89% 29.92 in 6.0 mi East 5.8 mph - 0.02 in Rain Light Rain
7:16 PM 46.4 °F 42.4 °F 44.6 °F 93% 29.91 in 5.0 mi East 8.1 mph - 0.00 in   Overcast
7:53 PM 46.9 °F - 45.0 °F 93% 29.94 in 5.0 mi Calm Calm - 0.00 in   Overcast
8:53 PM 46.9 °F - 45.0 °F 93% 29.92 in 9.0 mi NNE 4.6 mph - N/A   Mostly Cloudy
9:39 PM 46.4 °F 41.9 °F 44.6 °F 93% 29.97 in 8.0 mi North 9.2 mph 20.7 mph N/A   Overcast
9:53 PM 46.9 °F - 45.0 °F 93% 29.97 in 7.0 mi NE 5.8 mph - N/A   Overcast
10:53 PM 46.9 °F - 46.0 °F 97% 30.00 in 7.0 mi North 10.4 mph - N/A   Overcast
11:53 PM 44.1 °F 39.5 °F 42.1 °F 93% 29.99 in 10.0 mi NNE 8.1 mph - N/A   Overcast